SCP
0 0 0 0 0 0 0 0 0 0 0 0 0 0 0 0 0 0 0 0 0 0 0 0 0 0 0 0 0 0 0 0 0 0 0 0 0 0 0 0 0 0 0 0 0 0 0 0 0
0 0 0 0 0 0 0 0 0 0 0 0 0 0 0 0 0 0 0 0 0 0 0 0 0 0 0 0 0 0 0 0 0 0 0 0 0 0 0 0 0 0 0 0 0 0 0 0 0
0 0 0 0 0 0 0 0 0 0 0 0 0 0 0 0 0 0 0 0 0 0 0 0 0 0 0 0 0 0 0 0 0 0 0 0 0 0 0 0 0 0 0 0 0 0 0 0 0
0 0 0 0 0 0 0 0 0 0 0 0 0 0 0 0 0 0 0 0 0 0 0 0 0 0 0 0 0 0 0 0 0 0 0 0 0 0 0 0 0 0 0 0 0 0 0 0 0
0 0 0 0 0 0 0 0 0 0 0 0 0 0 0 0 0 0 0 0 0 0 0 0 0 0 0 0 0 0 0 0 0 0 0 0 0 0 0 0 0 0 0 0 0 0 0 0 0
0 0 0 0 0 0 0 0 0 0 0 0 0 0 0 0 0 0 0 0 0 0 0 0 0 0 0 0 0 0 0 0 0 0 0 0 0 0 0 0 0 0 0 0 0 0 0 0 0
0 0 0 0 0 0 0 0 0 0 0 0 0 0 0 0 0 0 -0 -0 0 0 0 0 0 0 0 0 0 0 0 0 0 0 0 0 0 0 0 0 0 0 0 0 0 0 0 0 0
0 0 0 0 0 0 0 0 0 0 0 0 0 0 0 0 0 0 -0 -0 -0 -0 -0 -0 -0 -0 0 0 0 0 0 0 0 0 0 0 0 0 0 0 0 0 0 0 0 0 0 0 0
0 0 0 0 0 0 0 0 0 0 0 0 0 0 0 0 0 0 0 0 0 -0 -0 -0 -0 -0 -0 0 0 0 0 0 0 0 0 0 0 0 0 0 0 0 0 0 0 0 0 0 0
0 0 0 0 0 0 0 0 0 0 0 0 0 0 0 0 0 0 0 0 0 0 -0 -0 -0 0 0 0 0 0 0 0 0 0 0 0 0 0 0 0 0 0 0 0 0 0 0 0 0
0 0 0 0 0 0 0 0 0 0 0 0 0 0 0 0 0 0 0 0 0 0 0 0 0 0 0 0 0 0 0 0 0 0 0 0 0 0 0 0 0 0 0 0 0 0 0 0 0
0 0 0 0 0 0 0 0 0 0 0 0 0 0 0 0 0 0 0 0 0 0 0 0 0 0 0 0 0 0 0 0 0 0 0 0 0 0 0 0 0 0 0 0 0 0 0 0 0
0 0 0 0 0 0 0 0 0 0 0 0 0 0 0 0 0 0 0 0 0 0 0 0 0 0 0 0 0 0 0 0 0 0 0 0 0 0 0 0 0 0 0 0 0 0 0 0 0
0 0 0 0 0 0 0 0 0 0 0 0 0 0 0 0 0 0 0 0 0 0 0 0 0 0 0 0 0 0 0 0 0 0 0 0 0 0 0 0 0 0 0 0 0 0 0 0 0
0 0 0 0 0 0 0 0 0 0 0 0 0 0 0 0 0 0 0 0 0 0 0 0 0 0 0 0 0 0 0 0 0 0 0 0 0 0 0 0 0 0 0 0 0 0 0 0 0
0 0 0 0 0 0 0 0 0 0 0 0 0 0 0 0 0 0 0 0 0 0 0 0 0 0 0 0 0 0 0 0 0 0 0 0 0 0 0 0 0 0 0 0 0 0 0 0 0
0 0 0 0 0 0 0 0 0 0 0 0 0 0 0 0 0 0 0 0 0 0 0 0 0 0 0 0 0 0 0 0 0 0 0 0 0 0 0 0 0 0 0 0 0 0 0 0 0
0 0 0 0 0 0 0 0 0 0 0 0 0 0 0 0 0 0 0 0 0 0 0 0 0 0 0 0 0 0 0 0 0 0 0 0 0 0 0 0 0 0 0 0 0 0 0 0 0
0 0 0 0 0 0 0 0 0 0 0 0 0 0 0 0 0 0 0 0 0 0 0 0 0 0 0 0 0 0 0 0 0 0 0 0 0 0 0 0 0 0 0 0 0 0 0 0 0
0 0 0 0 0 0 0 0 0 0 0 0 0 0 0 0 0 0 0 0 0 0 0 0 0 0 0 0 0 0 0 0 0 0 0 0 0 0 0 0 0 0 0 0 0 0 0 0 0
0 0 0 0 0 0 0 0 0 0 0 0 0 0 0 0 0 0 0 0 0 0 0 0 0 0 0 0 0 0 0 0 0 0 0 0 0 0 0 0 0 0 0 0 0 0 0 0 0
0 0 0 0 0 0 0 0 0 0 0 0 0 0 0 0 0 0 0 0 0 0 0 0 0 0 0 0 0 0 0 0 0 0 0 0 0 0 0 0 0 0 0 0 0 0 0 0 0
0 0 0 0 0 0 0 0 0 0 0 0 0 0 0 0 0 0 0 0 0 0 0 0 0 0 0 0 0 0 0 0 0 0 0 0 0 0 0 0 0 0 0 0 0 0 0 0 0
0 0 0 0 0 0 0 0 0 0 0 0 0 0 0 0 0 0 0 0 0 0 0 0 0 0 0 0 0 0 0 0 0 0 0 0 0 0 0 0 0 0 0 0 0 0 0 0 0
0 0 0 0 0 0 0 0 0 0 0 0 0 0 0 0 0 0 0 0 0 0 0 0 0 0 0 0 0 0 0 0 0 0 0 0 0 0 0 0 0 0 0 0 0 0 0 0 0
0 0 0 0 0 0 0 0 0 0 0 0 0 0 0 0 0 0 0 0 0 0 0 0 0 0 0 0 0 0 0 0 0 0 0 0 0 0 0 0 0 0 0 0 0 0 0 0 0
0 0 0 0 0 0 0 0 0 0 0 0 0 0 0 0 0 0 0 0 0 0 0 0 0 0 0 0 0 0 0 0 0 0 0 0 0 0 0 0 0 0 0 0 0 0 0 0 0
0 0 0 0 0 0 0 0 0 0 0 0 0 0 0 0 0 0 0 0 0 0 0 0 0 0 0 0 0 0 0 0 0 0 0 0 0 0 0 0 0 0 0 0 0 0 0 0 0
0 0 0 0 0 0 0 0 0 0 0 0 0 0 0 0 0 0 0 0 0 0 0 0 0 0 0 0 0 0 0 0 0 0 0 0 0 0 0 0 0 0 0 0 0 0 0 0 0
0 0 0 0 0 0 0 0 0 0 0 0 0 0 0 0 0 0 0 0 0 0 0 0 0 0 0 0 0 0 0 0 0 0 0 0 0 0 0 0 0 0 0 0 0 0 0 0 0
Wind_Speed
4 5 3 2 6 6 4 3 2 3 4 4 6 7 7 5 4 4 1 4 4 4 3 6 9 10 11 12 12 12 13 13 13 12 13 13 13 13 13 13 13 13 13 13 13 12 11 11 11
4 4 2 4 6 4 4 3 5 4 5 5 6 7 7 6 4 5 2 3 4 4 3 5 9 9 11 11 11 11 12 12 12 11 11 12 12 12 12 12 12 12 12 12 12 11 11 11 10
4 2 4 5 5 3 3 2 6 6 5 4 5 6 5 4 3 3 3 5 5 3 3 5 9 9 10 10 10 10 10 11 10 10 10 10 11 11 11 11 11 11 11 11 11 10 10 10 10
3 3 5 6 6 2 3 4 5 5 5 6 5 6 5 3 3 4 6 6 5 3 2 4 9 9 9 10 10 9 9 9 9 9 9 9 10 10 10 10 10 10 10 10 9 9 9 9 10
4 5 7 5 4 4 4 4 3 4 4 5 6 6 4 4 7 8 7 5 4 3 2 4 8 8 9 9 9 8 8 8 8 8 8 8 9 9 9 9 9 9 9 9 9 8 8 9 9
5 5 6 3 4 4 4 4 5 7 7 5 5 5 3 3 7 6 6 5 3 3 3 3 7 8 8 8 8 7 7 7 7 7 7 8 8 8 8 8 8 8 8 8 7 7 8 8 8
5 5 4 4 4 3 3 3 4 6 6 4 4 5 3 3 5 6 6 5 4 4 4 3 3 4 6 7 7 6 6 6 6 6 6 6 6 7 7 6 7 6 7 6 6 6 7 7 7
5 6 4 2 4 3 3 4 4 5 5 4 4 6 5 4 6 7 6 5 4 4 4 3 3 3 3 3 5 5 5 5 6 5 5 4 4 5 5 5 5 5 5 6 6 6 6 6 6
4 6 3 3 5 4 4 5 3 4 6 3 4 4 6 11 9 8 5 4 3 3 3 3 3 3 2 2 2 3 3 4 4 4 4 3 2 2 2 3 4 4 4 5 5 5 6 6 5
5 4 3 3 5 7 7 6 5 5 5 4 6 8 11 11 9 8 6 4 2 2 1 1 1 1 1 1 2 2 2 3 3 2 3 2 2 1 2 3 3 3 4 4 5 5 5 4 3
4 4 3 4 6 9 7 5 4 6 3 4 9 12 11 10 7 6 5 4 3 2 2 1 1 1 1 1 1 1 1 1 2 2 1 1 2 1 2 1 2 2 3 2 3 3 2 2 2
5 3 5 5 6 6 6 5 5 3 2 6 10 11 10 9 7 7 6 4 3 2 2 2 2 1 1 0 0 0 0 0 1 1 1 1 1 1 1 1 1 1 1 1 1 1 1 2 2
6 4 6 7 9 8 9 6 5 3 6 9 10 9 8 8 6 4 4 3 3 3 3 2 2 2 1 1 0 1 1 0 0 0 0 1 1 0 1 0 1 1 1 1 1 1 1 1 1
5 7 7 6 7 5 8 5 4 4 8 9 9 7 6 6 6 4 4 4 3 3 3 2 2 2 2 1 1 1 1 0 0 0 0 1 1 1 1 0 0 0 0 1 1 1 1 1 1
7 8 7 4 4 3 6 5 2 4 9 8 7 6 5 4 4 5 5 5 4 4 3 3 3 2 2 2 1 1 1 1 0 0 0 1 2 2 1 1 0 1 1 1 1 1 1 1 1
5 6 3 1 3 3 6 2 2 5 8 7 6 6 5 4 4 4 4 4 4 3 3 2 3 3 2 2 1 1 1 1 0 0 0 1 1 2 2 1 1 1 1 1 2 1 1 1 1
5 4 2 1 2 3 4 3 4 6 7 6 6 5 5 4 4 4 4 5 4 4 3 3 2 3 3 2 2 1 1 1 0 1 1 1 1 2 2 1 1 1 1 1 1 1 2 1 1
4 4 3 3 2 4 3 2 4 6 6 6 5 5 5 5 6 5 5 5 4 4 3 3 2 2 3 2 2 1 1 1 1 0 0 1 1 1 1 1 0 1 1 1 1 1 1 1 1
6 6 4 2 2 4 3 2 4 6 5 6 6 5 6 6 5 4 5 5 4 3 3 3 3 3 3 2 1 1 0 0 1 0 1 1 1 1 1 1 1 1 1 1 1 1 1 1 1
6 5 2 1 2 3 3 1 3 6 8 7 7 8 8 6 4 5 5 5 5 5 4 4 4 3 3 2 2 1 1 0 0 1 1 1 1 1 1 1 1 1 1 1 1 2 2 1 1
3 5 5 3 3 4 3 2 2 4 5 5 5 6 6 8 7 6 6 5 5 6 6 5 4 4 3 3 2 2 2 1 1 1 1 1 0 0 1 1 1 1 1 1 2 2 3 2 1
2 4 6 5 4 1 2 2 4 4 5 8 8 7 8 7 7 7 6 6 7 7 5 5 5 4 3 4 3 3 2 1 1 0 0 1 1 1 1 1 1 2 1 2 2 2 2 2 1
4 3 5 4 4 2 2 1 6 1 5 10 11 10 9 8 8 8 8 8 7 6 5 5 4 4 4 4 4 3 2 2 0 0 0 1 1 1 1 1 1 2 1 2 2 2 2 2 2
7 8 7 6 5 0 3 3 6 5 8 7 9 10 10 9 8 7 7 6 5 5 5 5 5 4 4 4 4 4 4 2 1 0 1 1 1 2 2 0 1 1 1 1 2 2 2 2 2
5 7 4 4 3 5 2 3 9 7 7 8 9 9 9 8 8 7 7 7 7 6 6 5 5 4 4 4 4 4 4 4 3 2 1 1 1 1 2 1 0 1 1 2 2 2 2 2 2
5 9 9 6 5 4 0 5 8 5 4 4 4 4 5 6 7 8 8 8 8 7 7 6 6 5 4 5 4 3 3 3 2 2 2 2 2 2 1 0 1 1 1 1 2 1 1 1 1
7 4 6 8 3 1 4 6 7 2 2 0 2 4 5 6 7 7 7 7 7 6 6 6 6 5 4 5 4 3 3 3 3 2 2 1 1 1 0 0 1 1 1 1 2 2 1 1 1
6 9 6 7 6 2 3 4 5 4 3 2 2 4 5 5 5 6 5 6 6 6 5 4 5 4 3 3 4 4 3 4 3 2 2 2 1 1 0 1 1 1 1 2 2 2 1 2 1
5 5 6 5 5 7 3 7 7 7 6 4 4 4 4 5 5 4 4 5 5 5 5 5 4 3 3 3 3 2 2 2 2 2 2 2 1 1 1 1 1 1 1 2 2 2 2 2 2
5 7 8 7 4 4 5 8 4 4 4 4 3 2 3 3 4 3 4 4 4 5 4 4 4 4 4 3 3 3 2 2 2 2 2 2 2 1 1 1 1 1 2 2 2 2 2 3 2
Wind_Direction
149 138 136 88 55 51 41 19 64 69 52 52 69 74 79 60 79 116 163 125 115 108 104 112 108 104 103 101 100 100 101 103 106 107 109 113 113 113 115 114 113 114 115 113 111 110 109 110 112
142 146 96 60 74 66 25 25 71 76 122 121 76 68 69 61 66 101 116 123 109 107 104 118 112 108 107 105 103 101 102 103 106 110 111 114 116 117 118 115 116 116 115 114 114 114 113 113 115
156 137 80 64 72 107 112 88 100 100 97 73 74 59 66 80 103 124 146 128 101 99 102 126 117 112 110 107 103 102 103 104 106 109 111 114 117 118 118 117 117 117 116 116 117 116 115 117 119
117 53 55 63 64 69 124 129 117 104 66 52 81 68 59 70 123 129 128 120 108 102 107 130 122 118 114 110 107 105 105 106 108 110 115 116 117 116 119 120 117 116 116 116 115 113 114 116 117
68 71 59 54 50 63 83 104 93 92 75 65 77 79 49 27 92 111 115 115 114 104 101 123 123 121 118 114 110 107 106 108 109 110 114 119 117 115 117 118 117 117 116 115 113 111 114 117 117
63 68 75 73 72 70 71 77 89 87 91 82 76 81 58 88 103 113 107 101 96 95 91 110 124 122 119 114 110 107 106 108 112 112 114 121 121 118 117 118 116 114 115 114 114 113 115 117 118
95 85 98 115 104 90 108 85 90 103 93 80 90 88 85 106 108 106 97 89 77 71 76 72 87 109 118 116 111 108 105 106 113 114 114 120 123 122 120 120 117 116 116 116 116 116 116 118 124
116 96 86 102 119 116 117 97 93 97 93 100 93 120 153 155 119 101 89 79 74 67 65 64 60 61 68 87 111 110 106 103 108 114 112 114 115 116 114 111 115 113 113 113 110 112 117 119 123
89 79 118 162 145 135 129 112 106 83 99 80 75 111 136 130 122 111 99 82 78 85 60 64 63 60 60 60 94 92 94 84 81 84 90 73 55 68 91 110 114 114 111 108 106 108 113 115 113
80 105 181 173 144 136 129 117 126 104 89 76 78 93 118 130 134 134 138 143 144 150 130 89 88 77 58 61 61 38 38 42 49 49 49 50 55 63 71 83 107 108 103 102 102 105 103 100 93
94 131 131 101 119 122 121 108 91 118 116 156 143 139 140 139 141 148 158 165 176 176 171 162 164 135 116 55 72 46 37 38 36 51 53 55 51 51 52 59 59 56 65 62 68 71 75 89 97
91 77 103 109 106 109 117 114 95 104 167 140 139 142 145 151 158 168 171 177 175 170 195 190 179 169 176 154 111 108 49 40 25 25 83 91 69 47 43 54 55 48 50 67 71 83 89 95 101
80 81 74 90 91 93 92 92 101 84 103 114 123 134 148 159 166 170 168 169 169 181 200 202 182 185 187 174 207 168 195 219 214 319 99 132 123 95 62 34 56 38 44 80 90 101 113 112 111
95 89 83 84 90 87 97 81 82 109 121 124 135 147 159 166 165 159 161 170 179 189 198 193 186 190 176 174 186 185 176 190 138 163 160 145 140 155 151 110 81 325 192 149 136 138 131 119 110
97 86 63 62 84 108 98 61 68 143 135 140 150 157 161 169 169 176 180 180 185 187 189 184 188 178 177 185 189 165 157 129 111 325 133 147 155 168 172 160 183 230 169 138 121 107 108 121 123
69 72 78 49 105 118 107 147 191 148 147 155 166 168 171 185 191 192 183 180 181 175 176 190 189 163 169 171 162 131 111 108 103 74 70 116 153 165 165 161 214 208 141 134 137 134 128 131 136
52 102 125 163 150 126 120 176 186 161 161 169 179 181 181 190 209 206 194 187 180 179 172 175 177 154 158 148 120 104 92 87 76 72 87 118 148 162 158 162 192 157 128 136 155 132 145 146 141
161 140 140 183 185 129 132 174 174 174 175 183 187 189 187 198 213 204 198 194 180 175 173 173 161 146 136 119 99 80 61 47 49 51 67 84 121 135 136 145 137 124 116 112 119 119 115 137 142
142 137 150 200 168 135 153 171 191 184 187 198 201 203 205 215 215 198 194 184 172 172 174 175 164 154 130 121 126 114 104 348 16 12 39 43 52 87 104 117 107 119 133 159 144 138 117 111 125
126 129 146 69 109 128 136 196 198 197 205 206 209 212 212 215 215 205 194 183 182 187 190 183 180 169 162 155 145 140 144 139 212 360 27 35 54 111 147 141 147 148 140 129 138 148 137 145 134
143 162 171 157 69 58 94 354 219 222 218 225 224 218 215 211 212 208 200 195 190 197 195 193 189 180 173 154 115 91 66 41 31 17 8 2 14 162 180 168 165 170 170 188 197 172 167 169 151
188 198 154 137 110 356 107 261 272 223 223 229 229 220 217 214 207 204 201 200 202 206 195 190 184 177 172 157 152 154 164 196 220 203 297 324 304 261 218 203 183 178 176 190 203 175 175 163 178
168 124 117 116 118 80 34 149 283 215 232 238 230 224 218 211 203 202 202 204 206 200 191 186 175 177 173 167 172 170 182 198 185 68 329 316 321 309 292 227 183 178 181 197 192 168 162 161 175
128 81 61 53 72 91 226 170 270 226 219 232 227 220 213 208 201 202 199 193 196 189 185 179 174 187 181 176 178 179 187 181 166 261 295 318 328 335 330 301 177 180 180 199 196 177 164 171 172
107 96 56 17 19 250 230 185 249 243 226 219 219 215 209 199 192 195 192 190 191 188 187 181 179 193 188 183 191 194 194 183 191 210 228 256 302 316 309 304 213 185 190 186 174 161 162 170 169
160 136 152 179 203 262 298 227 255 265 258 235 217 197 188 188 186 194 195 193 194 192 186 182 187 198 189 189 198 197 193 189 202 202 199 218 239 259 281 244 218 200 176 172 159 142 158 149 162
132 148 150 126 132 107 276 281 298 295 322 304 182 170 183 186 186 196 191 185 185 185 186 186 189 196 194 196 193 191 192 194 203 200 192 207 231 240 280 170 167 165 156 154 140 120 124 111 109
134 141 108 119 140 207 280 268 248 251 256 264 215 199 196 184 182 186 180 177 179 181 176 170 178 192 196 191 195 196 196 203 200 182 190 201 205 187 127 129 138 124 127 132 129 123 125 122 102
114 98 106 113 146 151 210 263 230 213 211 210 220 206 184 176 171 175 170 166 162 153 155 165 169 171 179 186 185 176 189 192 180 182 201 201 179 159 163 146 94 100 107 117 121 129 127 120 95
147 155 146 147 183 160 164 261 278 206 202 188 197 186 158 157 149 146 139 133 136 146 156 166 170 175 184 175 166 163 162 158 170 184 191 176 163 158 155 117 104 104 97 104 122 137 126 119 102